Weather History for KCKC - October, 2011

Change the Weather History Date:

Sunday, October 2, 2011

  Actual Average Record
Temperature  
Mean Temperature 50 °F -  
Max Temperature 66 °F 52 °F 73 °F (2006)
Min Temperature 33 °F 35 °F 19 °F (2003)
Degree Days  
Heating Degree Days 16    
Moisture  
Dew Point 36 °F    
Average Humidity 60    
Maximum Humidity 93    
Minimum Humidity 32    
Precipitation  
Precipitation 0.00 in - - ()
Sea Level Pressure  
Sea Level Pressure 30.18 in    
Wind  
Wind Speed 4 mph (SW)    
Max Wind Speed 7 mph    
Max Gust Speed -    
Visibility 10 miles    
Events      
Averages and records for this station are not official NWS values.
T = Trace of Precipitation, MM = Missing Value Source: NWS Daily Summary

Daily Weather History Graph

Daily Weather History Graph

Search for Another Location

Airport or City:

Trip Planner

Search our weather history database for the weather conditions in past years. The results will help you decide how hot, cold, wet, or windy it might be!

Date:

Astronomy

Oct. 02, 2011 Rise Set
Actual Time 7:01 AM CDT 6:39 PM CDT
Civil Twilight 6:30 AM CDT 7:10 PM CDT
Nautical Twilight 5:54 AM CDT 7:45 PM CDT
Astronomical Twilight 5:18 AM CDT 8:22 PM CDT
Moon 1:34 PM CDT (10/2) 10:12 PM CDT (10/2)
Length of Visible Light 12h 39m
Length of Day
11h 37m
Waxing Crescent, 35% of the Moon is Illuminated
Oct 2
Waxing Crescent
Oct 3
First Quarter
Oct 11
Full
Oct 19
Last Quarter
Oct 26
New

Hourly Weather History & Observations

Time (CDT) Temp. Windchill Dew Point Humidity Pressure Visibility Wind Dir Wind Speed Gust Speed Precip Events Conditions
12:13 AM 39.2 °F 37.0 °F 35.6 °F 87% 30.20 in 7.0 mi SW 3.5 mph - N/A   Clear
12:54 AM 39.2 °F 35.9 °F 35.6 °F 87% 30.20 in 7.0 mi SW 4.6 mph - N/A   Clear
1:13 AM 39.2 °F 35.9 °F 35.6 °F 87% 30.19 in 10.0 mi SW 4.6 mph - N/A   Clear
1:34 AM 39.2 °F 37.0 °F 35.6 °F 87% 30.19 in 10.0 mi SSW 3.5 mph - N/A   Clear
1:53 AM 39.2 °F 37.0 °F 37.4 °F 93% 30.19 in 10.0 mi SW 3.5 mph - N/A   Clear
2:13 AM 39.2 °F 37.0 °F 35.6 °F 87% 30.19 in 10.0 mi SW 3.5 mph - N/A   Clear
2:34 AM 39.2 °F 37.0 °F 35.6 °F 87% 30.19 in 10.0 mi SW 3.5 mph - N/A   Clear
2:53 AM 39.2 °F 37.0 °F 35.6 °F 87% 30.19 in 10.0 mi SW 3.5 mph - N/A   Clear
3:13 AM 39.2 °F 35.9 °F 35.6 °F 87% 30.18 in 10.0 mi WSW 4.6 mph - N/A   Clear
3:34 AM 39.2 °F 37.0 °F 35.6 °F 87% 30.18 in 10.0 mi SW 3.5 mph - N/A   Clear
3:53 AM 39.2 °F 37.0 °F 35.6 °F 87% 30.18 in 10.0 mi SW 3.5 mph - N/A   Clear
4:34 AM 39.2 °F 35.9 °F 33.8 °F 81% 30.18 in 10.0 mi WSW 4.6 mph - N/A   Clear
4:54 AM 39.2 °F 35.9 °F 33.8 °F 81% 30.17 in 10.0 mi WSW 4.6 mph - N/A   Clear
5:14 AM 39.2 °F 35.9 °F 33.8 °F 81% 30.17 in 10.0 mi WSW 4.6 mph - N/A   Clear
5:33 AM 39.2 °F 37.0 °F 32.0 °F 75% 30.17 in 10.0 mi SW 3.5 mph - N/A   Clear
5:54 AM 39.2 °F 37.0 °F 32.0 °F 75% 30.17 in 10.0 mi WSW 3.5 mph - N/A   Clear
6:14 AM 33.8 °F 30.8 °F 30.2 °F 87% 30.17 in 10.0 mi West 3.5 mph - N/A   Clear
6:33 AM 33.8 °F 30.8 °F 30.2 °F 87% 30.17 in 10.0 mi WSW 3.5 mph - N/A   Clear
6:54 AM 35.6 °F - 30.2 °F 81% 30.17 in 10.0 mi Calm Calm - N/A   Clear
7:14 AM 39.2 °F 35.9 °F 32.0 °F 75% 30.17 in 10.0 mi WSW 4.6 mph - N/A   Clear
7:33 AM 44.6 °F 42.2 °F 32.0 °F 61% 30.17 in 10.0 mi West 4.6 mph - N/A   Clear
8:14 AM 50.0 °F - 33.8 °F 54% 30.17 in 10.0 mi West 3.5 mph - N/A   Clear
8:33 AM 51.8 °F - 33.8 °F 50% 30.17 in 10.0 mi West 5.8 mph - N/A   Clear
8:54 AM 53.6 °F - 33.8 °F 47% 30.17 in 10.0 mi West 3.5 mph - N/A   Clear
9:13 AM 57.2 °F - 33.8 °F 41% 30.17 in 10.0 mi West 5.8 mph - N/A   Clear
9:34 AM 59.0 °F - 35.6 °F 42% 30.17 in 10.0 mi WNW 3.5 mph - N/A   Clear
9:53 AM 60.8 °F - 35.6 °F 39% 30.17 in 10.0 mi West 3.5 mph - N/A   Clear
10:14 AM 60.8 °F - 35.6 °F 39% 30.17 in 10.0 mi NW 5.8 mph - N/A   Clear
10:33 AM 62.6 °F - 35.6 °F 37% 30.17 in 10.0 mi Calm Calm - N/A   Clear
10:54 AM 64.4 °F - 35.6 °F 34% 30.17 in 10.0 mi North 6.9 mph - N/A   Clear
11:13 AM 64.4 °F - 35.6 °F 34% 30.17 in 10.0 mi Calm Calm - N/A   Clear
11:34 AM 66.2 °F - 35.6 °F 32% 30.17 in 10.0 mi Calm Calm - N/A   Clear
11:54 AM 66.2 °F - 35.6 °F 32% 30.16 in 10.0 mi Calm Calm - N/A   Clear
12:13 PM 66.2 °F - 42.8 °F 43% 30.16 in 10.0 mi SE 3.5 mph - N/A   Clear
12:34 PM 66.2 °F - 42.8 °F 43% 30.17 in 10.0 mi SE 4.6 mph - N/A   Clear
12:54 PM 66.2 °F - 44.6 °F 46% 30.17 in 10.0 mi SE 3.5 mph - N/A   Clear
1:13 PM 66.2 °F - 42.8 °F 43% 30.17 in 10.0 mi SE 4.6 mph - N/A   Clear
1:54 PM 66.2 °F - 42.8 °F 43% 30.16 in 10.0 mi SE 5.8 mph - N/A   Clear
2:14 PM 66.2 °F - 41.0 °F 40% 30.16 in 10.0 mi SE 6.9 mph - N/A   Clear
2:33 PM 64.4 °F - 39.2 °F 40% 30.16 in 10.0 mi ESE 5.8 mph - N/A   Clear
2:54 PM 64.4 °F - 37.4 °F 37% 30.16 in 10.0 mi SE 3.5 mph - N/A   Clear
3:14 PM 64.4 °F - 37.4 °F 37% 30.16 in 10.0 mi SSE 3.5 mph - N/A   Clear
3:33 PM 64.4 °F - 37.4 °F 37% 30.16 in 10.0 mi South 4.6 mph - N/A   Clear
3:54 PM 64.4 °F - 37.4 °F 37% 30.16 in 10.0 mi SSE 6.9 mph - N/A   Clear
4:34 PM 62.6 °F - 35.6 °F 37% 30.16 in 10.0 mi SSE 3.5 mph - N/A   Clear
5:13 PM 60.8 °F - 37.4 °F 42% 30.16 in 10.0 mi SSE 3.5 mph - N/A   Clear
5:33 PM 59.0 °F - 35.6 °F 42% 30.17 in 10.0 mi Calm Calm - N/A   Clear
5:53 PM 57.2 °F - 35.6 °F 44% 30.18 in 10.0 mi Calm Calm - N/A   Clear
6:14 PM 55.4 °F - 35.6 °F 47% 30.18 in 10.0 mi Calm Calm - N/A   Clear
6:53 PM 53.6 °F - 35.6 °F 51% 30.19 in 10.0 mi Calm Calm - N/A   Clear
7:13 PM 50.0 °F - 37.4 °F 62% 30.19 in 10.0 mi NE 4.6 mph - N/A   Clear
7:34 PM 48.2 °F - 35.6 °F 62% 30.20 in 10.0 mi NE 4.6 mph - N/A   Clear
7:53 PM 50.0 °F - 37.4 °F 62% 30.20 in 10.0 mi NNE 4.6 mph - N/A   Clear
8:14 PM 50.0 °F - 35.6 °F 58% 30.20 in 10.0 mi Calm Calm - N/A   Clear
8:33 PM 50.0 °F - 35.6 °F 58% 30.20 in 10.0 mi North 3.5 mph - N/A   Clear
8:54 PM 44.6 °F 43.1 °F 37.4 °F 76% 30.20 in 10.0 mi North 3.5 mph - N/A   Clear
9:13 PM 44.6 °F 43.1 °F 37.4 °F 76% 30.20 in 10.0 mi North 3.5 mph - N/A   Clear
9:33 PM 42.8 °F 40.1 °F 35.6 °F 76% 30.21 in 10.0 mi NNE 4.6 mph - N/A   Clear
9:54 PM 44.6 °F 42.2 °F 35.6 °F 71% 30.21 in 10.0 mi NE 4.6 mph - N/A   Clear
10:13 PM 48.2 °F - 33.8 °F 58% 30.21 in 10.0 mi ENE 3.5 mph - N/A   Clear
10:33 PM 46.4 °F 45.2 °F 33.8 °F 62% 30.21 in 10.0 mi NE 3.5 mph - N/A   Clear
10:54 PM 42.8 °F 41.1 °F 35.6 °F 76% 30.21 in 10.0 mi NE 3.5 mph - N/A   Clear
11:14 PM 44.6 °F 43.1 °F 33.8 °F 66% 30.21 in 10.0 mi NE 3.5 mph - N/A   Clear
11:33 PM 46.4 °F 44.3 °F 35.6 °F 66% 30.21 in 10.0 mi NE 4.6 mph - N/A   Clear
11:54 PM 46.4 °F 44.3 °F 33.8 °F 62% 30.21 in 10.0 mi ENE 4.6 mph - N/A   Clear